Time,TemperatureF,DewpointF,PressureIn,WindDirection,WindDirectionDegrees,WindSpeedMPH,WindSpeedGustMPH,Humidity,HourlyPrecipIn,Conditions,Clouds,dailyrainin,SoftwareType,DateUTC
2013-06-29 00:07:00,67.0,56.0,29.91,East,84,0.0,1.0,69,0.00,,,0.00,weatherlink.com 1.10,2013-06-29 07:07:00,
2013-06-29 00:22:00,66.8,57.0,29.90,East,84,0.0,0.0,70,0.00,,,0.00,weatherlink.com 1.10,2013-06-29 07:22:00,
2013-06-29 00:37:00,66.4,57.0,29.90,East,84,0.0,0.0,71,0.00,,,0.00,weatherlink.com 1.10,2013-06-29 07:37:00,
2013-06-29 00:52:00,66.0,57.0,29.90,East,84,0.0,0.0,73,0.00,,,0.00,weatherlink.com 1.10,2013-06-29 07:52:00,
2013-06-29 01:07:00,65.9,57.0,29.90,East,84,0.0,1.0,74,0.00,,,0.00,weatherlink.com 1.10,2013-06-29 08:07:00,
2013-06-29 01:22:00,65.4,57.0,29.89,East,84,0.0,0.0,75,0.00,,,0.00,weatherlink.com 1.10,2013-06-29 08:22:00,
2013-06-29 01:37:00,64.8,57.0,29.89,East,85,0.0,0.0,76,0.00,,,0.00,weatherlink.com 1.10,2013-06-29 08:37:00,
2013-06-29 01:52:00,64.3,57.0,29.89,East,84,0.0,0.0,77,0.00,,,0.00,weatherlink.com 1.10,2013-06-29 08:52:00,
2013-06-29 02:07:00,63.8,57.0,29.89,East,85,0.0,0.0,79,0.00,,,0.00,weatherlink.com 1.10,2013-06-29 09:07:00,
2013-06-29 02:22:00,63.5,57.0,29.89,East,84,0.0,0.0,79,0.00,,,0.00,weatherlink.com 1.10,2013-06-29 09:22:00,
2013-06-29 02:37:00,63.3,57.0,29.89,East,84,0.0,0.0,79,0.00,,,0.00,weatherlink.com 1.10,2013-06-29 09:37:00,
2013-06-29 02:52:00,63.2,56.0,29.88,East,85,0.0,0.0,78,0.00,,,0.00,weatherlink.com 1.10,2013-06-29 09:52:00,
2013-06-29 03:07:00,62.9,56.0,29.88,East,84,0.0,0.0,79,0.00,,,0.00,weatherlink.com 1.10,2013-06-29 10:07:00,
2013-06-29 03:22:00,62.3,56.0,29.87,East,85,0.0,0.0,81,0.00,,,0.00,weatherlink.com 1.10,2013-06-29 10:22:00,
2013-06-29 03:37:00,61.9,56.0,29.87,East,84,0.0,0.0,81,0.00,,,0.00,weatherlink.com 1.10,2013-06-29 10:37:00,
2013-06-29 03:52:00,61.5,56.0,29.88,East,84,0.0,0.0,82,0.00,,,0.00,weatherlink.com 1.10,2013-06-29 10:52:00,
2013-06-29 04:07:00,61.6,56.0,29.88,East,84,0.0,0.0,82,0.00,,,0.00,weatherlink.com 1.10,2013-06-29 11:07:00,
2013-06-29 04:22:00,61.3,56.0,29.88,East,84,0.0,0.0,82,0.00,,,0.00,weatherlink.com 1.10,2013-06-29 11:22:00,
2013-06-29 04:37:00,61.3,55.0,29.88,East,84,0.0,2.0,81,0.00,,,0.00,weatherlink.com 1.10,2013-06-29 11:37:00,
2013-06-29 04:52:00,61.3,55.0,29.88,East,84,0.0,0.0,81,0.00,,,0.00,weatherlink.com 1.10,2013-06-29 11:52:00,
2013-06-29 05:07:00,60.7,55.0,29.88,East,84,0.0,0.0,82,0.00,,,0.00,weatherlink.com 1.10,2013-06-29 12:07:00,
2013-06-29 05:22:00,60.3,55.0,29.89,East,84,0.0,0.0,83,0.00,,,0.00,weatherlink.com 1.10,2013-06-29 12:22:00,
2013-06-29 05:37:00,60.0,55.0,29.89,East,84,0.0,0.0,83,0.00,,,0.00,weatherlink.com 1.10,2013-06-29 12:37:00,
2013-06-29 05:52:00,59.6,55.0,29.89,East,84,0.0,0.0,85,0.00,,,0.00,weatherlink.com 1.10,2013-06-29 12:52:00,
2013-06-29 06:07:00,59.8,55.0,29.88,East,84,0.0,0.0,85,0.00,,,0.00,weatherlink.com 1.10,2013-06-29 13:07:00,
2013-06-29 06:22:00,60.7,56.0,29.89,East,85,0.0,0.0,85,0.00,,,0.00,weatherlink.com 1.10,2013-06-29 13:22:00,
2013-06-29 06:37:00,62.1,57.0,29.89,East,84,0.0,0.0,83,0.00,,,0.00,weatherlink.com 1.10,2013-06-29 13:37:00,
2013-06-29 06:52:00,64.2,58.0,29.88,East,85,1.0,1.0,80,0.00,,,0.00,weatherlink.com 1.10,2013-06-29 13:52:00,
2013-06-29 07:07:00,65.9,58.0,29.89,East,84,0.0,2.0,75,0.00,,,0.00,weatherlink.com 1.10,2013-06-29 14:07:00,
2013-06-29 07:22:00,67.3,59.0,29.89,East,84,1.0,1.0,74,0.00,,,0.00,weatherlink.com 1.10,2013-06-29 14:22:00,
2013-06-29 07:38:00,70.1,59.0,29.88,East,84,0.0,1.0,69,0.00,,,0.00,weatherlink.com 1.10,2013-06-29 14:38:00,
2013-06-29 07:53:00,70.5,59.0,29.88,East,84,1.0,3.0,68,0.00,,,0.00,weatherlink.com 1.10,2013-06-29 14:53:00,
2013-06-29 08:08:00,72.2,61.0,29.89,East,85,1.0,2.0,67,0.00,,,0.00,weatherlink.com 1.10,2013-06-29 15:08:00,
2013-06-29 08:23:00,73.9,60.0,29.89,East,84,0.0,2.0,63,0.00,,,0.00,weatherlink.com 1.10,2013-06-29 15:23:00,
2013-06-29 08:38:00,75.4,60.0,29.89,East,85,0.0,2.0,60,0.00,,,0.00,weatherlink.com 1.10,2013-06-29 15:38:00,
2013-06-29 08:53:00,76.6,61.0,29.89,East,97,0.0,2.0,58,0.00,,,0.00,weatherlink.com 1.10,2013-06-29 15:53:00,
2013-06-29 09:08:00,78.0,61.0,29.88,East,93,0.0,3.0,57,0.00,,,0.00,weatherlink.com 1.10,2013-06-29 16:08:00,
2013-06-29 09:23:00,77.9,62.0,29.88,NE,44,1.0,5.0,59,0.00,,,0.00,weatherlink.com 1.10,2013-06-29 16:23:00,
2013-06-29 09:38:00,77.8,62.0,29.89,NE,53,1.0,3.0,59,0.00,,,0.00,weatherlink.com 1.10,2013-06-29 16:38:00,
2013-06-29 09:53:00,77.2,63.0,29.88,NE,52,1.0,4.0,61,0.00,,,0.00,weatherlink.com 1.10,2013-06-29 16:53:00,
2013-06-29 10:08:00,77.3,63.0,29.88,NE,53,4.0,5.0,61,0.00,,,0.00,weatherlink.com 1.10,2013-06-29 17:08:00,
2013-06-29 10:23:00,78.4,63.0,29.88,NE,53,1.0,4.0,59,0.00,,,0.00,weatherlink.com 1.10,2013-06-29 17:23:00,
2013-06-29 10:38:00,79.8,63.0,29.88,North,5,2.0,3.0,56,0.00,,,0.00,weatherlink.com 1.10,2013-06-29 17:38:00,
2013-06-29 10:53:00,80.5,62.0,29.88,NNE,14,0.0,4.0,53,0.00,,,0.00,weatherlink.com 1.10,2013-06-29 17:53:00,
2013-06-29 11:08:00,82.9,62.0,29.87,NE,46,2.0,4.0,50,0.00,,,0.00,weatherlink.com 1.10,2013-06-29 18:08:00,
2013-06-29 11:23:00,84.2,61.0,29.87,NNE,17,1.0,5.0,46,0.00,,,0.00,weatherlink.com 1.10,2013-06-29 18:23:00,
2013-06-29 11:38:00,86.6,61.0,29.87,North,5,3.0,4.0,42,0.00,,,0.00,weatherlink.com 1.10,2013-06-29 18:38:00,
2013-06-29 11:53:00,89.6,52.0,29.86,North,360,4.0,7.0,28,0.00,,,0.00,weatherlink.com 1.10,2013-06-29 18:53:00,
2013-06-29 12:08:00,91.3,55.0,29.86,NE,49,1.0,8.0,29,0.00,,,0.00,weatherlink.com 1.10,2013-06-29 19:08:00,
2013-06-29 12:23:00,91.3,58.0,29.85,NNE,27,4.0,8.0,32,0.00,,,0.00,weatherlink.com 1.10,2013-06-29 19:23:00,
2013-06-29 12:39:00,92.0,55.0,29.85,NNE,20,4.0,8.0,28,0.00,,,0.00,weatherlink.com 1.10,2013-06-29 19:39:00,
2013-06-29 12:54:00,93.0,56.0,29.85,NE,36,4.0,8.0,29,0.00,,,0.00,weatherlink.com 1.10,2013-06-29 19:54:00,
2013-06-29 13:09:00,93.2,58.0,29.84,NNE,31,4.0,9.0,31,0.00,,,0.00,weatherlink.com 1.10,2013-06-29 20:09:00,
2013-06-29 13:24:00,92.2,58.0,29.84,NW,323,6.0,8.0,32,0.00,,,0.00,weatherlink.com 1.10,2013-06-29 20:24:00,
2013-06-29 13:39:00,92.6,60.0,29.84,WNW,302,2.0,7.0,34,0.00,,,0.00,weatherlink.com 1.10,2013-06-29 20:39:00,
2013-06-29 13:54:00,93.0,60.0,29.83,NW,323,5.0,7.0,33,0.00,,,0.00,weatherlink.com 1.10,2013-06-29 20:54:00,
2013-06-29 14:09:00,92.8,60.0,29.83,ENE,63,7.0,8.0,33,0.00,,,0.00,weatherlink.com 1.10,2013-06-29 21:09:00,
2013-06-29 14:24:00,93.0,60.0,29.83,NNE,15,5.0,7.0,33,0.00,,,0.00,weatherlink.com 1.10,2013-06-29 21:24:00,
2013-06-29 14:39:00,95.1,60.0,29.82,NW,325,3.0,7.0,31,0.00,,,0.00,weatherlink.com 1.10,2013-06-29 21:39:00,
2013-06-29 14:54:00,96.5,54.0,29.82,West,275,0.0,7.0,24,0.00,,,0.00,weatherlink.com 1.10,2013-06-29 21:54:00,
2013-06-29 15:09:00,96.9,55.0,29.81,NNW,344,6.0,8.0,24,0.00,,,0.00,weatherlink.com 1.10,2013-06-29 22:09:00,
2013-06-29 15:24:00,97.4,56.0,29.81,NW,323,2.0,7.0,25,0.00,,,0.00,weatherlink.com 1.10,2013-06-29 22:24:00,
2013-06-29 15:39:00,97.8,53.0,29.81,WSW,246,6.0,9.0,22,0.00,,,0.00,weatherlink.com 1.10,2013-06-29 22:39:00,
2013-06-29 15:54:00,96.5,53.0,29.80,West,261,8.0,9.0,23,0.00,,,0.00,weatherlink.com 1.10,2013-06-29 22:54:00,
2013-06-29 16:09:00,96.0,53.0,29.80,West,280,4.0,11.0,23,0.00,,,0.00,weatherlink.com 1.10,2013-06-29 23:09:00,
2013-06-29 16:24:00,95.3,54.0,29.80,WNW,291,5.0,9.0,25,0.00,,,0.00,weatherlink.com 1.10,2013-06-29 23:24:00,
2013-06-29 16:39:00,95.4,53.0,29.80,WNW,291,4.0,10.0,24,0.00,,,0.00,weatherlink.com 1.10,2013-06-29 23:39:00,
2013-06-29 16:54:00,94.0,54.0,29.79,WNW,285,4.0,10.0,26,0.00,,,0.00,weatherlink.com 1.10,2013-06-29 23:54:00,
2013-06-29 17:09:00,92.2,56.0,29.79,WSW,257,2.0,12.0,29,0.00,,,0.00,weatherlink.com 1.10,2013-06-30 00:09:00,
2013-06-29 17:24:00,90.6,56.0,29.79,WNW,296,1.0,8.0,31,0.00,,,0.00,weatherlink.com 1.10,2013-06-30 00:24:00,
2013-06-29 17:39:00,90.1,56.0,29.79,West,275,5.0,9.0,31,0.00,,,0.00,weatherlink.com 1.10,2013-06-30 00:39:00,
2013-06-29 17:54:00,88.4,55.0,29.78,West,265,3.0,12.0,32,0.00,,,0.00,weatherlink.com 1.10,2013-06-30 00:54:00,
2013-06-29 18:09:00,87.9,55.0,29.78,NNW,331,4.0,12.0,32,0.00,,,0.00,weatherlink.com 1.10,2013-06-30 01:09:00,
2013-06-29 18:24:00,87.2,54.0,29.78,WNW,297,3.0,7.0,32,0.00,,,0.00,weatherlink.com 1.10,2013-06-30 01:24:00,
2013-06-29 18:39:00,87.0,55.0,29.78,NW,321,3.0,7.0,33,0.00,,,0.00,weatherlink.com 1.10,2013-06-30 01:39:00,
2013-06-29 18:54:00,86.6,54.0,29.78,West,275,5.0,7.0,33,0.00,,,0.00,weatherlink.com 1.10,2013-06-30 01:54:00,
2013-06-29 19:09:00,85.6,53.0,29.78,NNE,12,6.0,6.0,33,0.00,,,0.00,weatherlink.com 1.10,2013-06-30 02:09:00,
2013-06-29 19:24:00,84.3,52.0,29.78,NNW,341,4.0,6.0,33,0.00,,,0.00,weatherlink.com 1.10,2013-06-30 02:24:00,
2013-06-29 19:39:00,82.8,52.0,29.78,NNW,336,3.0,10.0,35,0.00,,,0.00,weatherlink.com 1.10,2013-06-30 02:39:00,
2013-06-29 19:54:00,82.1,53.0,29.79,North,355,6.0,8.0,37,0.00,,,0.00,weatherlink.com 1.10,2013-06-30 02:54:00,
2013-06-29 20:09:00,79.1,56.0,29.79,NE,55,1.0,6.0,45,0.00,,,0.00,weatherlink.com 1.10,2013-06-30 03:09:00,
2013-06-29 20:24:00,76.3,56.0,29.79,NE,35,0.0,4.0,49,0.00,,,0.00,weatherlink.com 1.10,2013-06-30 03:24:00,
2013-06-29 20:39:00,75.1,56.0,29.80,NE,40,0.0,3.0,51,0.00,,,0.00,weatherlink.com 1.10,2013-06-30 03:39:00,
2013-06-29 20:54:00,74.1,55.0,29.80,NE,40,0.0,3.0,52,0.00,,,0.00,weatherlink.com 1.10,2013-06-30 03:54:00,
2013-06-29 21:09:00,73.6,57.0,29.80,East,80,0.0,2.0,56,0.00,,,0.00,weatherlink.com 1.10,2013-06-30 04:09:00,
2013-06-29 21:24:00,72.3,56.0,29.82,ENE,78,0.0,3.0,56,0.00,,,0.00,weatherlink.com 1.10,2013-06-30 04:24:00,
2013-06-29 21:39:00,71.4,56.0,29.82,ENE,78,1.0,1.0,58,0.00,,,0.00,weatherlink.com 1.10,2013-06-30 04:39:00,
2013-06-29 21:54:00,70.8,56.0,29.82,ENE,78,0.0,1.0,59,0.00,,,0.00,weatherlink.com 1.10,2013-06-30 04:54:00,
2013-06-29 22:09:00,69.9,55.0,29.82,ENE,78,0.0,1.0,60,0.00,,,0.00,weatherlink.com 1.10,2013-06-30 05:09:00,
2013-06-29 22:24:00,69.2,55.0,29.82,ENE,78,0.0,0.0,62,0.00,,,0.00,weatherlink.com 1.10,2013-06-30 05:24:00,
2013-06-29 22:39:00,68.7,56.0,29.82,ENE,78,0.0,0.0,64,0.00,,,0.00,weatherlink.com 1.10,2013-06-30 05:39:00,
2013-06-29 22:54:00,68.2,55.0,29.82,ENE,78,0.0,0.0,64,0.00,,,0.00,weatherlink.com 1.10,2013-06-30 05:54:00,
2013-06-29 23:09:00,67.6,56.0,29.82,ENE,78,0.0,0.0,66,0.00,,,0.00,weatherlink.com 1.10,2013-06-30 06:09:00,
2013-06-29 23:24:00,67.1,56.0,29.83,ENE,78,0.0,0.0,67,0.00,,,0.00,weatherlink.com 1.10,2013-06-30 06:24:00,
2013-06-29 23:39:00,66.8,56.0,29.82,ENE,78,0.0,0.0,68,0.00,,,0.00,weatherlink.com 1.10,2013-06-30 06:39:00,
2013-06-29 23:54:00,66.4,56.0,29.82,ENE,78,0.0,0.0,69,0.00,,,0.00,weatherlink.com 1.10,2013-06-30 06:54:00,